Starlink 5386

operational
NORAD ID: 54834 Int'l Des: 2022-177 Owner: SPXS Country: US Constellation: starlink
LEOCIRCULAR

Über Starlink 5386

Beschreibung wird geladen...

Live-Position

3D-Globus wird geladen...

Nächste Überflüge

Höhenverlauf

Altitude vs Time

uPlot chart will show altitude changes over time

Zweizeiliger Elementsatz

1 54834U 22177Q 25350.36958176 .00001026 00000-0 90986-4 0 9998
2 54834 43.0028 225.9105 0001174 265.3772 94.6937 15.02535684164437
Epoch: 16. Dez. 2025 • Age: 25 hours

Aktueller Status

Höhe 560.3 km
Geschwindigkeit 7.59 km/s
Subsatellitenpunkt 30.19°N, 134.9°E
Startdatum 28. Dez. 2022
Alter 2.9 years
Typ internet

Technische Details

Klassifizierung Payload
Masse 305.00 kg
Trockenmasse 290.00 kg
Gesamtmasse 305.00 kg
Länge 0.20 m
Durchmesser 2.80 m
Spannweite 9.00 m
Form Box + pan
Hersteller SPXS
Bus-Typ Starlink
Phasenstatus In Orbit
Besitzer/Staat SPXS/US

Große Konstellationen

Loading constellations...